Upstream stations:
Downstream station:
SHEF ID: TALO2 Illinois River near Tahlequah, O
STATION TYPE:
Regulating: Stage = 11.00, Flow = 9049
STAGE RIV-FLOW BAT-LOAD
ft cfs volt
Ccp-Rev Ccp-Rev Ccp-Rev
(US/Central)
07/08 00:00 5.16 372 12.17
07/08 01:00 5.16 372 12.17
07/08 02:00 5.15 368 12.17
07/08 03:00 5.14 364 12.17
07/08 04:00 5.15 368 12.09
07/08 05:00 5.15 368 12.09
07/08 06:00 5.14 364 12.09
07/08 07:00 5.15 368 12.09
07/08 08:00 5.15 368 12.09
07/08 09:00 5.14 364 12.17
07/08 10:00 5.14 364 12.57
07/08 11:00 5.14 364 12.65
07/08 12:00 5.13 360 12.81
07/08 13:00 5.13 360 12.89
07/08 14:00 5.11 352 12.57
07/08 15:00 5.12 356 12.57
07/08 16:00 5.11 352 12.49
07/08 17:00 5.10 348 12.57
07/08 18:00 5.11 352 12.41
07/08 19:00 5.10 348 12.41
07/08 20:00 5.10 348 12.33
07/08 21:00 5.10 457 12.25
07/08 22:00 5.11 462 12.33
07/08 23:00 5.11 462 12.25